Temperature
26 22 22 22 23 24 26 26 26 27 28 27 26 25 25 25 25 24 24 24 24 24 24 23 23 23 22 22 21 21 21 21 20 20 20 19 19 19 19 19 19 19 19 19
23 22 23 24 25 26 26 25 25 26 28 27 25 25 25 25 25 25 24 24 24 24 23 23 23 23 22 22 21 21 21 21 20 20 20 20 20 19 19 19 19 19 19 19
22 23 25 26 26 26 26 25 26 26 27 26 26 24 24 25 25 25 25 25 24 24 24 23 23 23 22 22 22 21 21 21 21 20 20 20 19 19 19 19 19 19 19 19
23 24 26 26 26 26 25 27 27 27 26 24 25 23 23 24 24 24 25 25 24 24 24 24 23 23 23 23 22 22 21 21 21 20 20 20 20 20 20 20 19 19 19 19
23 25 26 26 26 27 26 28 28 27 26 24 24 23 23 23 23 23 24 25 25 25 24 24 24 24 23 23 22 22 22 21 21 21 20 20 20 20 20 19 19 19 19 19
23 26 26 26 27 28 28 27 25 22 22 23 24 24 23 22 23 24 24 25 25 25 25 24 24 24 23 23 22 22 22 21 21 21 20 20 20 20 19 19 19 19 19 19
24 25 26 27 27 27 27 23 22 23 21 22 23 24 22 23 24 25 25 25 26 25 25 24 24 24 23 23 22 22 22 22 21 21 20 20 20 20 20 19 19 19 19 19
22 22 25 27 26 25 25 22 21 22 22 22 23 24 23 24 26 26 26 26 26 25 25 25 25 24 24 23 23 22 22 22 21 21 21 20 20 20 19 19 19 19 19 19
21 22 26 27 27 26 25 22 21 21 22 22 22 23 24 24 25 25 25 25 25 25 25 25 25 24 24 23 23 22 22 22 21 21 21 20 20 20 19 19 19 19 19 19
23 23 25 27 28 27 25 24 20 20 21 22 23 23 23 24 24 24 23 24 25 25 25 25 24 24 24 23 23 22 22 22 21 21 21 20 20 20 19 19 19 19 19 18
23 22 23 25 25 25 26 25 21 19 19 21 22 22 23 23 23 23 23 24 25 25 25 25 24 24 24 23 23 22 22 21 21 21 20 20 20 19 19 19 19 19 19 19
22 20 21 23 24 26 25 24 21 21 21 19 20 21 24 23 23 23 23 24 24 25 25 24 24 24 23 23 22 22 21 21 21 20 20 20 19 19 19 19 19 19 19 18
22 20 20 22 23 25 26 24 22 19 19 19 20 22 23 23 23 23 23 23 24 24 24 24 24 23 23 22 22 21 21 20 20 20 20 19 19 19 19 19 19 18 18 18
22 19 19 21 21 23 25 25 24 20 20 20 21 22 22 23 22 21 22 23 23 23 23 23 23 23 22 22 22 21 21 20 20 20 19 19 19 19 19 19 18 18 18 18
21 20 22 22 24 25 25 25 25 23 21 21 22 22 22 22 21 22 22 22 22 22 22 22 22 22 22 22 21 21 21 20 20 20 19 19 19 19 18 18 18 18 18 17
18 20 22 23 24 25 25 25 25 25 24 23 23 22 22 22 22 22 21 21 21 21 22 22 21 21 21 21 21 21 20 20 20 19 19 19 18 18 18 18 18 17 17 17
18 19 20 20 22 24 23 24 24 25 24 24 23 22 21 21 21 21 21 21 21 21 21 21 21 21 21 20 20 20 20 19 19 19 18 18 18 18 18 17 17 17 16 16
18 18 17 19 22 22 22 23 24 24 24 23 23 22 22 21 21 22 22 22 21 21 21 21 20 20 20 20 20 19 19 19 18 18 18 18 17 17 17 17 16 16 16 16
17 17 17 17 19 21 22 23 23 23 22 23 22 21 21 21 20 20 21 22 21 21 21 20 20 20 19 19 19 19 18 18 18 18 17 17 17 17 16 16 16 16 16 15
17 16 17 17 20 20 21 22 23 22 21 21 21 20 20 21 19 18 20 21 21 20 20 20 19 19 19 18 18 18 18 18 17 17 17 17 16 16 16 16 15 15 15 15
17 17 17 17 19 19 20 21 22 21 20 21 21 21 21 20 20 19 20 20 20 20 19 19 19 19 18 18 18 18 17 17 17 16 16 16 16 16 15 15 15 15 15 15
16 16 16 16 18 18 19 20 19 18 20 21 21 21 21 20 19 19 20 20 19 19 19 18 18 18 17 17 18 17 17 16 16 16 16 15 15 15 15 15 14 14 14 14
16 16 15 16 16 17 18 19 19 20 20 20 20 21 21 19 18 19 19 19 18 18 18 18 18 17 17 17 17 17 16 16 16 15 15 15 15 14 14 14 14 14 14 13
16 16 15 15 16 17 18 19 20 20 20 21 21 20 20 19 18 18 18 18 18 17 17 17 17 17 16 16 16 16 16 15 15 15 14 14 14 14 14 14 14 13 13 13
15 15 15 15 16 17 18 19 19 20 20 20 20 20 19 19 18 18 17 17 17 17 17 17 17 16 15 15 15 15 15 15 15 14 14 14 14 14 13 13 13 12 12 12
14 15 15 15 15 15 17 18 19 19 19 19 19 18 18 18 18 17 17 17 16 16 16 16 16 15 15 15 15 14 14 14 14 14 14 13 13 13 13 13 12 11 11 11
Wind_Speed
2 3 5 9 8 7 3 2 5 7 4 4 7 9 13 14 13 14 14 13 13 13 12 13 14 15 14 12 12 11 10 9 7 5 4 4 3 3 3 5 8 9 9 10
1 7 11 7 6 5 5 4 6 7 4 3 6 6 9 13 16 16 16 15 14 12 11 13 13 14 15 14 13 12 11 10 9 6 5 4 4 3 4 4 6 8 9 8
9 7 7 7 7 7 7 6 7 5 3 4 6 1 3 7 8 10 12 13 14 17 17 17 16 15 15 15 15 14 12 11 10 8 4 3 2 1 1 2 3 5 8 8
7 9 6 7 9 8 8 8 7 4 2 1 4 3 6 6 6 10 13 13 14 15 15 16 16 15 16 15 14 12 11 11 10 9 7 7 6 5 5 4 4 4 7 8
8 7 8 9 11 9 8 6 3 3 3 1 2 4 6 3 7 12 14 15 15 16 17 17 17 17 15 14 13 12 11 11 10 9 9 8 6 5 4 3 4 4 4 6
9 7 7 10 9 8 5 1 6 6 5 0 4 4 6 7 12 12 13 15 15 15 16 15 14 13 12 13 12 12 12 11 10 10 9 9 8 7 6 5 5 4 4 4
6 8 7 4 4 4 3 5 4 4 4 5 4 3 8 11 11 13 14 14 13 13 14 14 14 14 14 14 14 13 13 12 11 10 9 9 8 8 8 7 6 5 4 4
6 7 7 6 8 7 6 10 8 6 5 5 3 4 8 8 7 8 10 11 11 12 12 13 14 14 14 14 13 13 13 11 10 10 9 7 7 6 5 6 5 5 5 5
8 8 7 7 7 10 6 6 10 8 3 1 4 5 7 3 1 4 8 9 10 11 12 12 12 12 13 13 13 13 12 10 9 9 7 6 6 5 5 5 4 4 4 4
6 5 6 6 3 4 9 9 7 6 5 2 4 3 4 4 3 4 7 10 10 10 10 10 9 10 10 10 10 10 10 11 9 9 8 7 6 5 5 4 5 4 4 3
6 4 6 1 7 9 5 6 6 6 7 7 2 6 6 7 7 8 7 8 9 10 10 9 8 8 8 8 8 8 8 7 7 7 7 6 5 4 4 4 4 4 3 4
7 5 4 8 8 9 9 8 9 6 4 6 5 6 6 5 7 9 10 9 8 8 8 9 9 8 7 7 7 7 6 5 6 6 6 5 4 4 3 3 3 3 3 3
8 6 1 5 5 2 5 6 7 7 6 5 5 6 3 4 7 8 11 10 9 9 8 7 8 8 7 7 7 7 6 6 5 5 5 5 4 4 3 2 2 2 2 2
8 6 7 9 8 6 5 5 6 8 6 6 7 6 2 4 8 8 9 10 10 9 10 8 7 7 7 7 8 7 6 6 6 5 5 5 4 3 3 3 2 2 3 3
7 5 5 5 4 3 5 6 7 7 9 9 9 9 9 9 11 10 10 11 11 10 10 10 9 7 7 7 7 7 7 7 7 7 6 5 4 4 4 3 3 3 3 4
5 6 3 2 2 1 2 5 7 7 7 7 6 5 5 7 9 10 12 13 12 11 11 10 10 9 7 7 7 7 6 6 6 7 6 5 5 5 4 4 4 4 5 5
3 5 4 1 4 4 4 6 7 5 5 8 8 7 9 10 12 12 12 12 11 11 10 10 9 8 7 7 7 8 7 7 7 7 6 5 5 6 5 6 6 6 6 6
6 5 5 3 4 2 7 5 4 6 3 6 8 9 13 12 9 8 9 11 10 9 9 8 7 7 7 7 8 8 8 8 8 7 6 6 6 6 6 6 6 5 6 6
7 7 5 4 2 3 6 4 1 5 1 4 10 12 11 13 13 8 5 9 10 10 9 8 8 8 8 8 8 9 9 8 8 7 6 6 7 7 6 6 6 5 6 6
7 7 6 5 4 3 5 7 4 7 1 1 10 14 13 11 7 4 5 9 11 10 9 9 9 9 9 7 8 10 9 9 8 7 6 6 7 7 7 6 6 6 6 7
4 5 5 4 2 4 6 9 3 6 7 3 6 11 11 6 7 9 10 11 11 11 10 10 10 9 7 7 10 11 9 8 6 7 8 8 7 7 7 7 7 7 8 8
5 4 4 4 3 5 6 4 3 5 3 5 7 9 12 13 14 13 13 12 11 11 11 10 10 9 7 8 11 11 9 7 7 9 9 8 7 7 7 8 7 8 8 8
3 6 6 6 5 4 2 2 2 4 6 5 7 10 15 16 14 13 11 10 10 11 10 10 11 11 8 8 9 10 7 7 9 10 10 8 8 8 8 8 8 7 7 6
3 2 4 4 2 1 3 4 5 6 6 7 10 12 14 15 14 13 11 10 9 10 10 11 11 11 8 7 8 8 7 9 10 10 9 8 9 9 9 8 6 6 6 6
2 3 4 3 2 4 6 5 6 7 9 10 11 10 12 15 14 13 11 10 9 9 9 10 10 10 9 8 8 7 7 9 11 10 9 8 8 9 9 9 8 7 5 5
2 2 4 3 4 4 1 1 5 8 8 8 11 11 10 12 12 11 11 10 9 9 9 10 10 10 9 8 8 7 7 9 10 9 8 7 7 7 8 9 9 13 11 12
Wind_Direction
197 108 217 225 205 198 229 278 280 273 243 141 160 167 175 177 179 177 181 182 182 185 179 171 171 168 167 167 165 168 170 175 167 162 164 167 179 181 184 193 191 189 187 182
67 236 229 228 237 240 251 272 279 293 278 151 163 177 180 180 187 186 185 186 185 178 171 172 171 171 172 174 172 171 176 178 178 181 176 172 172 185 189 194 194 196 196 191
198 235 221 225 244 254 257 224 233 243 334 49 115 105 200 197 188 187 189 187 186 182 181 178 176 177 176 179 179 180 180 181 183 180 165 159 138 134 180 205 203 206 199 198
238 247 233 223 234 221 253 233 218 225 111 244 145 174 244 212 207 196 195 192 191 188 185 184 179 179 181 183 181 178 178 181 185 179 175 174 181 194 206 202 204 209 205 203
237 224 218 225 231 216 229 237 218 194 141 71 33 129 255 219 218 215 204 197 194 189 186 186 185 184 183 181 180 179 179 184 187 186 185 185 193 201 195 189 195 206 214 208
248 257 215 218 235 222 218 27 26 47 77 61 245 152 248 218 210 210 205 198 196 190 188 188 185 176 177 178 179 180 181 189 190 190 191 192 195 194 186 190 195 206 209 213
275 276 258 226 226 257 146 101 36 4 18 244 252 168 241 241 219 204 197 193 190 183 184 183 180 178 179 180 182 182 184 191 192 193 197 198 199 195 196 195 196 198 200 209
204 264 246 215 189 191 177 141 156 180 209 267 312 224 256 255 233 198 181 176 173 175 180 181 183 180 180 180 180 182 186 190 190 193 200 200 197 195 199 199 199 201 204 206
186 241 258 223 189 161 155 162 165 141 160 113 281 288 318 335 352 159 159 156 164 168 169 172 172 174 177 177 181 181 180 182 186 191 191 191 191 191 193 195 195 203 210 208
174 229 265 232 178 175 161 155 106 120 145 222 287 267 234 246 202 158 152 156 162 157 156 159 163 168 171 174 174 171 174 181 185 187 191 193 191 193 190 184 194 201 205 209
183 198 288 263 186 191 153 133 122 131 149 153 221 271 231 209 191 154 149 148 143 147 152 149 152 157 156 154 158 162 168 171 177 181 177 177 183 185 180 183 196 200 195 190
174 149 240 252 238 186 164 168 146 154 197 159 160 262 279 198 168 144 134 132 125 131 140 141 139 133 132 143 147 151 159 170 176 174 169 169 167 162 171 187 194 183 176 181
158 135 138 330 318 204 171 169 153 139 132 146 157 255 308 114 116 119 122 121 119 116 112 114 120 128 134 136 139 145 158 165 154 149 150 147 149 153 167 180 175 160 155 151
136 128 159 191 214 208 205 206 164 136 158 184 197 203 245 144 131 125 120 117 117 117 115 116 117 123 131 131 136 143 147 141 138 135 135 139 146 152 150 142 139 138 131 120
125 152 179 207 232 205 206 213 197 176 176 177 206 191 204 179 155 143 128 121 119 118 119 119 117 119 123 122 132 137 137 137 135 131 131 136 132 123 112 105 109 110 107 107
100 134 121 355 349 322 272 238 213 195 174 172 163 202 202 152 136 132 133 133 132 132 130 125 123 123 121 121 124 121 121 124 126 127 131 128 119 112 101 90 87 93 94 90
90 109 101 333 343 36 291 241 214 203 184 165 181 196 148 137 146 151 145 136 139 137 130 127 126 123 121 124 121 117 117 113 113 118 120 118 119 112 103 99 87 85 92 92
122 102 110 85 59 203 253 260 167 158 169 155 149 151 148 142 131 119 128 125 125 129 128 123 120 116 110 109 111 108 107 106 106 106 107 111 114 111 105 98 99 97 94 93
126 121 106 108 129 287 309 333 68 138 165 142 135 130 124 114 90 69 93 121 130 132 129 123 120 116 109 106 111 108 103 101 100 99 98 104 111 111 108 106 107 105 99 90
76 99 108 113 134 203 269 302 298 110 105 292 135 139 139 121 117 154 136 117 114 111 111 112 110 107 106 105 107 104 101 97 96 97 95 94 99 104 104 106 106 99 96 93
69 70 111 127 157 258 280 306 10 125 194 211 139 142 139 128 144 143 125 114 116 116 114 111 107 103 104 106 106 103 101 99 101 98 92 85 88 98 101 99 98 97 96 91
151 138 149 134 154 249 303 9 103 186 172 126 118 122 118 114 116 119 119 120 120 117 115 112 107 100 94 100 105 103 103 104 100 96 90 82 78 89 95 96 93 93 96 93
166 179 169 168 194 236 316 111 146 129 106 105 115 118 120 119 122 120 119 120 117 116 114 112 111 104 94 93 104 110 110 105 99 94 87 80 75 73 80 91 97 94 91 93
339 36 100 93 85 80 54 63 66 80 92 100 114 121 120 122 124 120 118 115 112 113 116 116 114 111 105 100 101 108 110 106 100 95 90 86 84 78 72 71 78 91 95 96
286 43 70 87 119 57 33 51 73 75 87 94 103 114 121 122 124 124 121 118 114 110 111 115 117 117 114 107 102 102 106 109 104 101 98 93 91 92 83 74 64 74 70 100
337 118 133 188 205 144 156 9 90 94 95 109 114 109 113 120 122 120 119 118 118 115 114 113 113 114 112 110 105 101 105 112 112 109 104 103 105 101 98 96 79 59 70 73
Height
1497 1504 1510 1506 1505 1506 1508 1512 1514 1506 1497 1501 1507 1510 1511 1513 1515 1516 1518 1521 1523 1525 1529 1532 1535 1538 1541 1543 1545 1547 1549 1551 1553 1555 1556 1557 1558 1560 1561 1562 1563 1564 1564 1565
1503 1506 1498 1497 1499 1502 1506 1513 1513 1504 1495 1501 1508 1511 1509 1509 1510 1512 1514 1517 1520 1524 1526 1529 1532 1535 1537 1540 1543 1545 1547 1549 1551 1553 1555 1556 1558 1559 1560 1561 1561 1562 1563 1564
1504 1498 1493 1496 1499 1504 1505 1510 1509 1507 1500 1500 1509 1519 1514 1510 1510 1512 1513 1515 1517 1519 1522 1525 1528 1531 1534 1537 1540 1542 1545 1547 1549 1552 1553 1555 1556 1557 1558 1559 1560 1561 1562 1562
1498 1492 1492 1495 1498 1499 1508 1496 1498 1500 1510 1520 1514 1537 1521 1512 1511 1510 1510 1512 1514 1516 1518 1521 1524 1527 1530 1534 1537 1540 1543 1545 1547 1550 1551 1552 1553 1554 1555 1556 1558 1559 1560 1560
1495 1488 1490 1494 1492 1492 1496 1489 1493 1498 1508 1519 1518 1530 1525 1513 1513 1507 1505 1506 1509 1511 1514 1517 1520 1523 1528 1532 1535 1538 1541 1543 1545 1547 1549 1550 1551 1552 1553 1555 1556 1557 1558 1559
1488 1483 1484 1485 1483 1484 1486 1491 1499 1508 1519 1534 1522 1528 1529 1514 1505 1500 1499 1501 1504 1508 1511 1515 1518 1522 1526 1530 1533 1535 1538 1540 1542 1544 1546 1547 1549 1550 1551 1552 1553 1554 1555 1556
1491 1483 1479 1478 1484 1484 1488 1510 1533 1535 1544 1540 1520 1521 1521 1498 1491 1491 1493 1496 1500 1504 1508 1512 1516 1519 1523 1526 1530 1532 1535 1537 1539 1541 1543 1545 1546 1547 1548 1549 1550 1551 1552 1553
1501 1500 1480 1475 1481 1488 1491 1506 1533 1545 1546 1538 1519 1521 1508 1487 1485 1486 1488 1492 1497 1501 1505 1508 1512 1516 1520 1523 1527 1530 1532 1534 1537 1539 1540 1542 1543 1544 1546 1547 1548 1548 1549 1550
1499 1497 1474 1470 1471 1478 1490 1502 1505 1524 1528 1535 1530 1515 1499 1487 1486 1486 1488 1492 1496 1499 1502 1506 1510 1514 1518 1521 1523 1526 1529 1531 1534 1536 1538 1540 1541 1542 1543 1544 1545 1545 1545 1546
1483 1492 1476 1469 1469 1473 1479 1489 1510 1525 1540 1543 1531 1521 1515 1498 1492 1489 1490 1491 1494 1498 1502 1505 1508 1512 1516 1519 1521 1524 1527 1529 1531 1533 1535 1536 1538 1539 1540 1541 1541 1541 1542 1543
1477 1490 1484 1475 1478 1482 1482 1489 1503 1519 1525 1540 1541 1528 1495 1493 1488 1489 1491 1492 1494 1497 1500 1504 1508 1511 1514 1518 1520 1522 1525 1527 1529 1531 1532 1534 1535 1537 1537 1538 1539 1539 1540 1540
1474 1488 1495 1483 1470 1466 1474 1483 1499 1517 1523 1526 1533 1525 1487 1486 1485 1487 1489 1492 1495 1497 1500 1504 1507 1511 1514 1517 1519 1521 1524 1526 1527 1529 1530 1531 1533 1534 1535 1536 1536 1537 1537 1538
1470 1487 1501 1497 1486 1473 1474 1478 1487 1501 1514 1524 1530 1518 1487 1486 1487 1488 1490 1492 1496 1499 1502 1505 1508 1511 1513 1516 1519 1521 1524 1525 1526 1527 1528 1530 1531 1532 1533 1534 1534 1535 1535 1535
1461 1482 1494 1501 1493 1481 1478 1476 1480 1496 1513 1517 1513 1506 1494 1490 1490 1491 1492 1493 1497 1500 1502 1506 1509 1511 1513 1516 1518 1520 1522 1524 1525 1526 1527 1529 1529 1531 1531 1532 1532 1533 1533 1534
1459 1477 1477 1477 1472 1471 1473 1474 1476 1486 1494 1503 1500 1497 1491 1488 1489 1490 1492 1495 1498 1501 1505 1507 1509 1512 1513 1516 1518 1519 1521 1523 1524 1525 1526 1527 1529 1530 1530 1530 1531 1531 1532 1532
1461 1472 1474 1476 1469 1469 1473 1471 1472 1476 1481 1486 1488 1491 1483 1484 1487 1491 1493 1496 1499 1502 1505 1507 1509 1511 1513 1515 1517 1519 1521 1523 1524 1525 1526 1527 1528 1529 1529 1529 1529 1529 1530 1531
1465 1471 1482 1487 1477 1474 1484 1473 1471 1473 1472 1477 1486 1485 1482 1485 1487 1489 1493 1496 1499 1501 1504 1507 1509 1511 1514 1516 1518 1519 1521 1523 1524 1524 1526 1527 1528 1528 1528 1529 1528 1529 1530 1531
1465 1474 1486 1489 1485 1496 1483 1464 1463 1467 1469 1469 1472 1476 1478 1481 1486 1490 1493 1496 1499 1502 1505 1508 1511 1513 1514 1516 1518 1520 1521 1522 1523 1524 1525 1526 1527 1528 1528 1529 1529 1529 1530 1531
1458 1471 1485 1495 1497 1490 1475 1466 1466 1470 1475 1469 1472 1476 1481 1483 1487 1494 1496 1497 1500 1503 1506 1509 1511 1513 1515 1517 1518 1519 1521 1522 1523 1524 1525 1525 1526 1527 1528 1529 1529 1530 1531 1531
1461 1467 1483 1493 1496 1497 1484 1467 1463 1467 1483 1473 1471 1475 1479 1481 1492 1498 1498 1499 1501 1504 1507 1510 1512 1514 1516 1517 1518 1519 1520 1522 1522 1523 1524 1525 1527 1527 1528 1529 1529 1530 1531 1532
1475 1478 1486 1492 1495 1489 1474 1467 1464 1483 1485 1474 1473 1474 1477 1480 1486 1493 1496 1499 1502 1504 1507 1510 1512 1514 1516 1517 1518 1519 1521 1522 1523 1524 1525 1526 1527 1528 1528 1529 1530 1531 1531 1532
1480 1485 1488 1493 1497 1493 1472 1468 1473 1476 1472 1472 1474 1476 1478 1482 1487 1492 1496 1499 1502 1505 1508 1511 1513 1514 1516 1518 1518 1519 1521 1523 1524 1525 1526 1527 1527 1528 1529 1530 1530 1531 1532 1533
1475 1476 1479 1484 1487 1477 1472 1471 1471 1471 1473 1474 1476 1478 1480 1483 1489 1493 1497 1501 1503 1506 1509 1511 1513 1515 1517 1518 1520 1520 1522 1523 1524 1525 1526 1528 1528 1529 1530 1531 1532 1532 1533 1533
1472 1469 1473 1478 1478 1475 1473 1473 1472 1473 1474 1476 1478 1481 1482 1486 1490 1495 1498 1501 1504 1507 1509 1511 1514 1516 1517 1519 1521 1522 1523 1524 1526 1526 1527 1529 1529 1530 1531 1532 1533 1533 1534 1534
1473 1471 1475 1479 1478 1476 1475 1475 1475 1475 1476 1478 1480 1483 1485 1488 1492 1496 1499 1502 1504 1507 1510 1512 1514 1516 1518 1520 1521 1523 1524 1525 1526 1527 1529 1530 1531 1532 1532 1533 1534 1534 1535 1537
1473 1474 1477 1480 1477 1477 1478 1478 1478 1477 1479 1481 1483 1486 1488 1490 1493 1496 1499 1502 1506 1508 1511 1513 1515 1517 1519 1521 1522 1524 1525 1527 1527 1528 1530 1531 1532 1533 1534 1535 1536 1537 1538 1539